Weather History for Cavalier, ND

Change the Weather History Date:

Wednesday, October 2, 2013

  Actual Average (KGAF) Record (KGAF)
Temperature  
Mean Temperature 52 °F -  
Max Temperature 62 °F 64 °F 85 °F (1953)
Min Temperature 42 °F 39 °F 18 °F (1974)
Degree Days  
Heating Degree Days 13    
Growing Degree Days 2 (Base 50)    
Moisture  
Dew Point 41 °F    
Average Humidity 66    
Maximum Humidity 100    
Minimum Humidity 45    
Precipitation  
Precipitation 0.00 in - - ()
Sea Level Pressure  
Sea Level Pressure 29.93 in    
Wind  
Wind Speed 6 mph (SW)    
Max Wind Speed 13 mph    
Max Gust Speed 17 mph    
Visibility 10 miles    
Events Rain    
Averages and records for this station are not official NWS values.
T = Trace of Precipitation, MM = Missing Value Source: NWS Daily Summary

Daily Weather History Graph

Daily Weather History Graph

Search for Another Location

Airport:

Trip Planner

Search our weather history database for the weather conditions in past years. The results will help you decide how hot, cold, wet, or windy it might be!

Date:

Astronomy

Oct. 02, 2013 Rise Set
Actual Time 7:31 AM CDT 7:06 PM CDT
Civil Twilight 7:00 AM CDT 7:38 PM CDT
Nautical Twilight 6:23 AM CDT 8:14 PM CDT
Astronomical Twilight 5:46 AM CDT 8:51 PM CDT
Moon 4:56 AM CDT (10/2) 5:50 PM CDT (10/2)
Length of Visible Light 12h 37m
Length of Day
11h 34m
Waning Crescent, 6% of the Moon is Illuminated
Oct 2
Waning Crescent
Oct 4
New
Oct 11
First Quarter
Oct 18
Full
Oct 26
Last Quarter

Hourly Weather History & Observations

Time (CDT) Temp. Windchill Dew Point Humidity Pressure Visibility Wind Dir Wind Speed Gust Speed Precip Events Conditions
12:15 AM 46.4 °F 43.5 °F 37.4 °F 71% 29.85 in 10.0 mi SSW 5.8 mph - N/A   Clear
12:35 AM 48.2 °F - 37.4 °F 66% 29.85 in 10.0 mi SW 8.1 mph - N/A   Clear
12:55 AM 46.4 °F 42.9 °F 37.4 °F 71% 29.85 in 10.0 mi SW 6.9 mph - N/A   Clear
1:15 AM 46.4 °F 42.4 °F 37.4 °F 71% 29.86 in 10.0 mi SSW 8.1 mph - N/A   Clear
1:35 AM 46.4 °F 42.4 °F 37.4 °F 71% 29.87 in 10.0 mi SSW 8.1 mph - N/A   Clear
1:55 AM 46.4 °F 42.4 °F 37.4 °F 71% 29.87 in 10.0 mi SSW 8.1 mph - N/A   Clear
2:15 AM 50.0 °F - 35.6 °F 58% 29.87 in 10.0 mi SW 6.9 mph - N/A   Clear
2:35 AM 48.2 °F - 37.4 °F 66% 29.88 in 10.0 mi SW 8.1 mph - N/A   Clear
2:55 AM 48.2 °F - 35.6 °F 62% 29.88 in 10.0 mi SW 5.8 mph - N/A   Clear
3:15 AM 48.2 °F - 37.4 °F 66% 29.88 in 10.0 mi WSW 6.9 mph - N/A   Clear
3:35 AM 48.2 °F - 37.4 °F 66% 29.88 in 10.0 mi WSW 6.9 mph - N/A   Clear
3:55 AM 48.2 °F - 37.4 °F 66% 29.88 in 10.0 mi SW 4.6 mph - N/A   Clear
4:15 AM 48.2 °F - 37.4 °F 66% 29.89 in 10.0 mi WSW 5.8 mph - N/A   Clear
4:35 AM 48.2 °F - 37.4 °F 66% 29.89 in 10.0 mi WSW 6.9 mph - N/A   Clear
4:55 AM 48.2 °F - 37.4 °F 66% 29.89 in 10.0 mi WSW 9.2 mph - N/A   Clear
5:15 AM 48.2 °F - 37.4 °F 66% 29.89 in 10.0 mi West 8.1 mph - N/A   Clear
5:35 AM 48.2 °F - 37.4 °F 66% 29.89 in 10.0 mi West 8.1 mph - N/A   Clear
5:55 AM 48.2 °F - 35.6 °F 62% 29.90 in 10.0 mi West 8.1 mph - N/A   Clear
6:15 AM 48.2 °F - 35.6 °F 62% 29.90 in 10.0 mi SW 5.8 mph - N/A   Clear
6:35 AM 48.2 °F - 35.6 °F 62% 29.90 in 10.0 mi Calm Calm - N/A   Clear
6:55 AM 48.2 °F - 35.6 °F 62% 29.90 in 10.0 mi WSW 4.6 mph - N/A   Clear
7:15 AM 50.0 °F - 35.6 °F 58% 29.91 in 10.0 mi WSW 3.5 mph - N/A   Scattered Clouds
7:35 AM 48.2 °F - 35.6 °F 62% 29.91 in 10.0 mi SW 5.8 mph - N/A   Partly Cloudy
7:55 AM 48.2 °F - 37.4 °F 66% 29.91 in 10.0 mi SSW 5.8 mph - N/A   Clear
8:15 AM 50.0 °F - 37.4 °F 62% 29.92 in 10.0 mi SW 5.8 mph - N/A   Partly Cloudy
8:35 AM 50.0 °F - 37.4 °F 62% 29.93 in 10.0 mi SW 6.9 mph - N/A   Clear
8:55 AM 51.8 °F - 37.4 °F 58% 29.93 in 10.0 mi SW 8.1 mph - N/A   Clear
9:15 AM 53.6 °F - 37.4 °F 54% 29.94 in 10.0 mi SW 9.2 mph - N/A   Partly Cloudy
9:35 AM 55.4 °F - 37.4 °F 51% 29.95 in 10.0 mi West 10.4 mph - N/A   Partly Cloudy
9:55 AM 57.2 °F - 37.4 °F 48% 29.96 in 10.0 mi West 9.2 mph - N/A   Partly Cloudy
10:15 AM 57.2 °F - 37.4 °F 48% 29.95 in 10.0 mi WSW 10.4 mph - N/A   Scattered Clouds
10:35 AM 57.2 °F - 39.2 °F 51% 29.95 in 10.0 mi WSW 9.2 mph - N/A Rain Light Rain
10:55 AM 57.2 °F - 39.2 °F 51% 29.96 in 10.0 mi WSW 8.1 mph - N/A   Partly Cloudy
11:15 AM 57.2 °F - 41.0 °F 55% 29.96 in 10.0 mi West 9.2 mph - N/A Rain Light Rain
11:35 AM 60.8 °F - 39.2 °F 45% 29.96 in 10.0 mi West 12.7 mph - N/A   Overcast
11:55 AM 59.0 °F - 41.0 °F 51% 29.96 in 9.0 mi WSW 8.1 mph - N/A Rain Light Rain
12:15 PM 59.0 °F - 39.2 °F 48% 29.96 in 10.0 mi WSW 8.1 mph - N/A   Scattered Clouds
12:35 PM 60.8 °F - 39.2 °F 45% 29.96 in 10.0 mi SSW 9.2 mph - N/A   Scattered Clouds
12:55 PM 60.8 °F - 41.0 °F 48% 29.96 in 10.0 mi SSW 9.2 mph - N/A   Mostly Cloudy
1:15 PM 62.6 °F - 41.0 °F 45% 29.95 in 10.0 mi SSW 10.4 mph 17.3 mph N/A   Mostly Cloudy
1:35 PM 60.8 °F - 42.8 °F 52% 29.95 in 10.0 mi West 4.6 mph - N/A   Overcast
1:55 PM 60.8 °F - 41.0 °F 48% 29.96 in 10.0 mi West 9.2 mph - N/A   Overcast
2:15 PM 59.0 °F - 41.0 °F 51% 29.96 in 10.0 mi Calm Calm - N/A   Overcast
2:35 PM 59.0 °F - 41.0 °F 51% 29.96 in 10.0 mi Calm Calm - N/A   Overcast
2:55 PM 59.0 °F - 41.0 °F 51% 29.95 in 10.0 mi NNE 3.5 mph - N/A   Overcast
3:15 PM 57.2 °F - 44.6 °F 63% 29.94 in 9.0 mi SSE 3.5 mph - N/A   Overcast
3:35 PM 57.2 °F - 46.4 °F 67% 29.93 in 10.0 mi Calm Calm - N/A   Overcast
3:55 PM 57.2 °F - 46.4 °F 67% 29.94 in 10.0 mi NNE 4.6 mph - N/A   Overcast
4:15 PM 57.2 °F - 44.6 °F 63% 29.94 in 10.0 mi North 4.6 mph - N/A   Overcast
4:35 PM 57.2 °F - 44.6 °F 63% 29.94 in 10.0 mi North 4.6 mph - N/A   Overcast
4:55 PM 57.2 °F - 44.6 °F 63% 29.94 in 10.0 mi Calm Calm - N/A   Overcast
5:15 PM 57.2 °F - 46.4 °F 67% 29.94 in 10.0 mi ESE 3.5 mph - N/A   Mostly Cloudy
5:35 PM 59.0 °F - 46.4 °F 63% 29.94 in 10.0 mi ESE 3.5 mph - N/A   Mostly Cloudy
5:55 PM 59.0 °F - 44.6 °F 59% 29.94 in 10.0 mi SE 3.5 mph - N/A   Scattered Clouds
6:15 PM 59.0 °F - 44.6 °F 59% 29.94 in 10.0 mi Calm Calm - N/A   Clear
6:35 PM 59.0 °F - 44.6 °F 59% 29.95 in 10.0 mi SSE 3.5 mph - N/A   Clear
6:55 PM 55.4 °F - 42.8 °F 63% 29.95 in 10.0 mi Calm Calm - N/A   Clear
7:15 PM 53.6 °F - 44.6 °F 72% 29.96 in 10.0 mi SSE 4.6 mph - N/A   Clear
7:35 PM 51.8 °F - 44.6 °F 76% 29.96 in 10.0 mi South 5.8 mph - N/A   Clear
7:55 PM 50.0 °F - 44.6 °F 82% 29.96 in 10.0 mi South 5.8 mph - N/A   Clear
8:15 PM 48.2 °F - 46.4 °F 93% 29.96 in 10.0 mi South 3.5 mph - N/A   Clear
8:35 PM 48.2 °F - 46.4 °F 93% 29.96 in 10.0 mi South 6.9 mph - N/A   Clear
8:55 PM 48.2 °F - 46.4 °F 93% 29.97 in 10.0 mi SSW 3.5 mph - N/A   Clear
9:15 PM 48.2 °F - 46.4 °F 93% 29.97 in 10.0 mi South 3.5 mph - N/A   Clear
9:35 PM 48.2 °F - 44.6 °F 87% 29.97 in 10.0 mi South 5.8 mph - N/A   Clear
9:55 PM 46.4 °F 44.3 °F 44.6 °F 93% 29.98 in 10.0 mi SSW 4.6 mph - N/A   Clear
10:15 PM 44.6 °F 42.2 °F 44.6 °F 100% 29.98 in 10.0 mi SSW 4.6 mph - N/A   Clear
10:35 PM 42.8 °F - 41.0 °F 93% 29.98 in 10.0 mi Calm Calm - N/A   Clear
10:55 PM 42.8 °F - 42.8 °F 100% 29.98 in 10.0 mi Calm Calm - N/A   Clear
11:15 PM 42.8 °F - 41.0 °F 93% 29.98 in 10.0 mi Calm Calm - N/A   Clear
11:35 PM 44.6 °F 43.1 °F 42.8 °F 93% 29.98 in 10.0 mi WSW 3.5 mph - N/A   Clear
11:55 PM 44.6 °F 43.1 °F 44.6 °F 100% 29.98 in 10.0 mi SSW 3.5 mph - N/A   Clear